Location: Unspecified
(0.0000°N, 0.0000°E)
Time: 18:33:54
(UTC+00:00)

Hubble Space Telescope - Pass Details

Date: 05 November 2025
Orbit: 482 x 485 km, 28.5° (Epoch: 06 November)

Event Time Altitude Azimuth Distance (km) Brightness Sun altitude
Rises 18:39:58 0° 320° (NW) 2,517 4.5 -13.5°
Reaches altitude 10° 18:42:29 10° 335° (NNW) 1,640 3.3 -14.1°
Maximum altitude 18:45:31 23° 29° (NNE) 1,054 1.9 -14.9°
Enters shadow 18:45:52 23° 38° (NE) 1,063 1.8 -14.9°
